Regional Weather Roundup
Issued by NWS

Home | Current Version | Previous Version | Graphics & Text | Print | Product List | Glossary On
Versions: 1 2 3 4 5 6 7 8 9 10 11 12 13 14 15 16 17 18 19 20 21 22 23 24 25 26 27 28 29 30 31 32 33 34 35 36 37 38 39 40 41 42 43 44 45 46 47 48 49 50
000
ASUS44 KMEG 261410
RWRTN
TENNESSEE HOURLY STATE WEATHER ROUNDUP
NATIONAL WEATHER SERVICE MEMPHIS TN
900 AM CDT MON JUN 26 2017

TNZ002-004-019-021-049-052-054-088>092-261500-
WEST TENNESSEE

CITY           SKY/WX    TMP DP  RH WIND       PRES   REMARKS
MEMPHIS INTL   CLOUDY    71  64  78 S3        30.21S
NWS MEMPHIS      N/A     69 N/A N/A MISG        N/A
JACKSON        PTSUNNY   68  63  84 CALM      30.22R
SOMERVILLE     MOSUNNY   68  63  83 CALM      30.20S
COVINGTON      MOSUNNY   68  63  83 CALM      30.22R
UNION CITY     PTSUNNY   70  57  64 N3        30.23R
BOLIVAR        PTSUNNY   68  61  77 CALM      30.21S
PARIS          MOSUNNY   70  57  64 NE8       30.22R
HUNTINGDON     SUNNY     68  57  68 MISG      30.21S
LEXINGTON      MOSUNNY   64  61  88 CALM      30.22R
SELMER         MOSUNNY   66  63  88 CALM      30.22R
SAVANNAH       MOSUNNY   68  61  77 CALM      30.20F
$$

TNZ008-025-027-028-033-062-065-066-261500-
NORTH MIDDLE TENNESSEE

CITY           SKY/WX    TMP DP  RH WIND       PRES   REMARKS
NASHVILLE      CLOUDY    69  54  58 N7        30.22S
PORTLAND       SUNNY     70  54  56 N5        30.21S
CLARKSVILLE    SUNNY     71  52  50 N5        30.22S
SMYRNA         CLOUDY    69  58  67 N7        30.22S
COOKEVILLE     SUNNY     68  57  68 S3        30.21S
GALLATIN       SUNNY     66  59  77 CALM      30.24S
CROSSVILLE     SUNNY     69  53  56 W5        30.24S
$$

TNZ061-075-076-078-094-096-097-261500-
SOUTH MIDDLE TENNESSEE

CITY           SKY/WX    TMP DP  RH WIND       PRES   REMARKS
FAYETTEVILLE   SUNNY     73  59  60 NW5       30.22R
TULLAHOMA      SUNNY     72  55  56 W5        30.23F
MCMINNVILLE    SUNNY     70  61  73 SW3       30.22S
COLUMBIA       SUNNY     68  59  73 CALM      30.20R
SHELBYVILLE    SUNNY     70  57  64 CALM      30.21F
$$

TNZ017-018-042-046-047-261500-
NORTHEAST TENNESSEE

CITY           SKY/WX    TMP DP  RH WIND       PRES   REMARKS
TRI CITIES     MOSUNNY   67  55  65 CALM      30.20F
ELIZABETHTON   SUNNY     68  52  56 CALM      30.21F
$$

TNZ012-013-036-069-073-074-261500-
CENTRAL EAST TENNESSEE

CITY           SKY/WX    TMP DP  RH WIND       PRES   REMARKS
KNOXVILLE      CLOUDY    64  57  78 SW3       30.21R
OAK RIDGE      CLOUDY    69  56  62 CALM      30.21S
DOWNTOWN KNOXV SUNNY     64  61  88 CALM      30.20R
GATLINBURG     SUNNY     68  54  60 W3        30.20S
MORRISTOWN     SUNNY     70  54  56 W3        30.19S
JACKSBORO      SUNNY     70  57  64 CALM      30.23S
$$

TNZ083-085-099-261500-
SOUTHEAST TENNESSEE

CITY           SKY/WX    TMP DP  RH WIND       PRES   REMARKS
CHATTANOOGA    PTSUNNY   69  56  62 CALM      30.22R
$$

SKY/WX REPORTED AS FAIR MEANS FEW OR NO CLOUDS BELOW
12 THOUSAND FEET.





USA.gov is the U.S. government's official web portal to all federal, state and local government web resources and services.